sat.trackr.live / text

‹ back to catalog

JCSAT-18 (KACIFIC 1)

NORAD 44868 · 2019-091A

PAYLOAD ACTIVE UNKNOWN

§ Identity

Operator
Country
JPN
Launch date
2019-12-17
Launch site
AFETR
Launch vehicle
Mass (kg)
RCS (m²)

Purposes: comms

External: N2YO · Heavens-Above · Gunter

§ Orbital elements

Epoch: 2026-05-25T05:02:38.473728Z

Period
1,436.13 min
Inclination
0.0135°
Eccentricity
0.0000115
Mean motion
1.00269590 rev/d
Perigee alt
35,786.7 km
Apogee alt
35,787.7 km
Semi-major
42,165.3 km
B*
0.0000e+0
RAAN
294.2834°
Arg perigee
193.4324°
Mean anomaly
340.7511°
Rev number
2,378

§ Raw data

JCSAT-18 (KACIFIC 1)1 44868U 19091A   26145.21016752  .00000000  00000+0  00000+0 0  99902 44868   0.0135 294.2834 0000115 193.4324 340.7511  1.00269590 23789

JSON: /api/v1/satellites/44868 · /tle

For live sub-satellite position, see the globe view (requires WebGL).

§ Visibility from observer

Set your observer location to see the next 7 days of passes ≥ 10°. The values pass through the URL so the page stays shareable.

No JS? Fill the form by hand. The geolocation button needs JavaScript.